Location: Radford
(37.1320°N, 80.5770°W)
Time: 05:14:32
(UTC-05:00)

Daily predictions for brighter satellites

Satellite Brightness Start Highest point End
(mag) Time Altitude Azimuth Time Altitude Azimuth Time Altitude Azimuth
H-2A R/B (2) 4.4 03:29:29 55° SSE 03:29:29 55° SSE 04:40:00 10° E
H-2A R/B (2) 4.4 03:29:29 55° SSE 03:29:29 55° SSE 04:40:01 10° E
USA 215 4.3 03:48:27 10° ENE 03:53:24 40° E 03:53:24 40° E
CENTAUR R/B 3.6 04:11:31 37° NE 04:11:31 37° NE 04:15:31 10° NE
Centaur D-1AR AC-39 4.5 04:15:18 17° SSE 04:15:18 17° SSE 04:16:30 10° SSE
Thor Agena Rocket 4.4 04:36:16 10° SSE 04:39:44 44° SE 04:39:44 44° SE
Meteor 1-14 Rocket 4.2 04:48:00 10° S 04:53:42 80° E 04:59:18 10° N
Cosmos 2297 3.9 04:54:46 55° NNE 04:55:50 68° ENE 05:01:27 10° SSE
DELTA 2 R/B (1) 3.5 05:01:35 75° SSW 05:01:35 75° SSW 05:07:02 10° ESE
BREEZE-M DEB (TANK) 4.5 05:02:43 31° S 05:04:19 46° SE 05:13:41 10° NE
Cosmos 2074 Rocket 4.3 05:05:01 10° S 05:11:13 68° E 05:17:26 10° NNE
Cosmos 2278 Rocket 3.3 05:14:01 29° SSW 05:14:01 29° SSW 05:17:08 10° S
Meteor 1-25 Rocket 4.3 05:11:10 10° S 05:17:00 84° E 05:22:52 10° N
SL-16 R/B 2.1 05:17:23 58° WNW 05:17:37 59° WNW 05:23:13 10° NNE
Ariane Rocket 4.2 05:17:26 10° NNE 05:22:13 41° E 05:26:58 10° S
Cosmos 2184 Rocket 4.0 05:18:44 10° S 05:24:52 83° E 05:31:05 10° N
Cosmos 292 Rocket 3.6 05:23:40 40° SW 05:25:21 68° WNW 05:30:10 10° NNE
Cosmos 1812 2.6 05:28:27 54° N 05:29:16 85° E 05:33:08 10° S
Cosmos 1346 Rocket 3.7 05:28:50 14° N 05:32:02 47° E 05:35:50 10° SSE
GPS 2-05 Rocket1 2.9 05:32:52 70° S 05:32:55 70° S 05:36:31 10° E
Timation 1 Rocket 4.3 05:30:47 33° NW 05:33:26 64° WSW 05:39:20 10° S
Iridium 2 3.5 05:29:53 10° S 05:33:41 80° W 05:35:36 28° N
USA 215 3.4 05:31:22 10° NE 05:37:37 51° NW 05:40:47 29° W
Cosmos 1680 Rocket 3.8 05:38:54 35° WSW 05:40:18 42° WNW 05:45:16 10° N
SL-08 ROCKET BODY 4.3 05:34:36 10° SSW 05:40:34 69° W 05:46:29 10° N
CZ-4 R/B 4.3 05:37:59 10° NE 05:40:48 19° E 05:43:35 10° SE
SKYMED 2 3.5 05:39:15 10° SSE 05:43:35 88° ENE 05:47:40 12° NNW
Cosmos 2151 Rocket 3.7 05:39:49 10° SSW 05:44:12 52° W 05:48:36 10° N
Cosmos 2181 Rocket 4.5 05:42:27 24° NW 05:45:30 37° W 05:51:13 10° SSW
Cosmos 2237 Rocket 4.2 05:52:17 11° NNW 05:52:17 11° NNW 05:52:34 10° NNW
Radarsat Rocket 4.4 05:44:10 10° NNE 05:51:11 75° WNW 05:59:08 10° SSW
Meteor 1-28 Rocket 3.8 05:50:03 10° SSE 05:53:44 57° ENE 05:57:29 10° N
Cosmos 1536 4.3 05:51:05 10° SSE 05:54:47 38° E 05:58:30 10° NNE
CSL-04 DEB 4.3 05:51:30 10° NNE 05:55:34 85° WNW 05:59:42 10° SSW
CZ-3 R/B 3.4 05:46:48 10° SW 05:55:53 24° S 05:59:42 10° SE
Cosmos 1633 3.1 05:52:40 10° S 05:56:17 61° E 05:59:53 10° NNE
CENTAUR R/B 3.6 05:58:46 22° WNW 06:00:14 24° NW 06:05:40 10° NNE
NOAA 6 4.3 05:55:57 10° N 06:00:45 42° WNW 06:05:32 10° SW
Abrixas rocket 3.2 05:58:14 10° SW 06:01:29 47° SE 06:04:44 10° ENE
Cosmos 1610 Rocket 4.4 05:58:08 10° SSW 06:04:14 67° W 06:10:26 10° N
Tiangong 2 2.2 06:05:56 26° NW 06:06:41 29° N 06:09:31 10° ENE
Cosmos 1536 Rocket 4.0 06:06:16 12° NNW 06:10:05 39° W 06:14:11 10° SSW
Gbstr 26 Del rocket 3.8 06:08:42 22° W 06:10:53 34° SW 06:14:33 10° SSE
CSL-04 Debris 4.3 06:05:50 10° NNE 06:11:19 85° ESE 06:16:48 10° SSW
CSL-04 Rocket 3.7 06:06:02 10° NNE 06:11:37 82° WNW 06:17:06 10° SSW
CZ-2C R/B 4.1 06:07:07 10° NNE 06:11:58 39° E 06:16:41 10° SSE
Cosmos 1238 Rocket 4.2 06:08:45 15° NW 06:12:11 32° W 06:17:09 10° SSW
Cosmos 1603 3.8 06:09:30 10° SW 06:15:04 54° WNW 06:20:37 10° NNE
YAOGAN 1 4.3 06:13:31 10° NNE 06:17:32 36° E 06:21:32 10° SSE
Cosmos 2369 Rocket 3.1 06:14:55 10° NNW 06:20:29 50° ENE 06:25:59 10° SE
Cosmos 44 4.1 06:17:09 10° SSW 06:22:27 61° ESE 06:27:38 10° NE
SMAP 4.1 06:20:52 10° NNE 06:25:24 50° E 06:29:54 10° S
Okean 1 Rocket 3.2 06:22:36 10° SSW 06:26:52 49° W 06:31:09 10° N
Cosmos 1025 Rocket 3.5 06:23:31 10° N 06:27:54 66° E 06:32:13 10° SSE
COSMO-SKYMED 1 3.7 06:28:10 10° SSW 06:31:45 25° W 06:35:20 10° NW
PSLV R/B 3.5 06:29:19 15° WNW 06:32:00 57° NNE 06:35:18 10° E
Lacrosse 5 1.9 06:28:15 10° SW 06:33:20 66° NW 06:38:26 10° NE
Kosmos-1675 3.5 06:32:50 10° SW 06:35:18 68° NW 06:43:49 10° NNE
Cosmos 921 Rocket 4.2 06:32:02 10° NW 06:35:39 24° W 06:39:17 10° SSW
PAYLOAD A 4.1 06:30:42 10° N 06:36:04 80° WNW 06:41:30 10° SSW
GRACE-2 4.1 06:34:12 10° N 06:36:59 72° E 06:39:44 10° S
Okean 1-7 Rocket 3.6 06:32:42 10° NNW 06:37:01 58° W 06:41:18 10° S
GRACE-1 4.0 06:34:37 10° N 06:37:24 75° E 06:40:10 10° S
Nadezhda 3 Rocket 4.1 06:32:42 10° NNW 06:38:56 57° W 06:45:08 10° SSW
SPOT 3 Rocket 4.0 06:34:12 10° NNE 06:39:20 68° ESE 06:44:26 10° S
Cosmos 1943 3.2 06:36:42 10° SSW 06:42:17 72° WNW 06:47:56 10° NNE
Cosmos 2056 Rocket 3.9 06:38:57 10° NNW 06:43:49 43° WSW 06:48:37 10° S
USA 129 3.1 06:45:32 10° SSW 06:47:01 19° W 06:48:36 10° NW
USA 229 DEB 4.1 06:41:03 10° SSW 06:47:53 74° ESE 06:54:50 10° NE
USA 229 4.1 06:41:11 10° SSW 06:48:01 73° ESE 06:54:56 10° NE
MOS 1 4.5 06:42:39 10° NNE 06:48:20 82° ESE 06:53:59 10° SSW
Cosmos 44 Rocket 3.8 06:46:49 10° SW 06:51:44 43° NW 06:56:37 10° NNE
Cosmos 2341 Rocket 4.3 06:47:31 10° SSW 06:53:35 49° W 06:59:39 10° N
Meteor 1-11 Rocket 4.3 06:49:02 10° SW 06:54:26 37° WNW 06:59:47 10° N
IDEFIX/ARIANE 42P 2.6 06:51:31 10° N 06:56:43 79° WNW 07:01:54 10° SSW
